Location: Aranbee
(34.0885°N, 118.2342°W)
Time: 05:05:26
(UTC+00:00)

Courier 1B - Pass Details

Date: 26 November 2020
Orbit: 962 x 1209 km, 28.3° (Epoch: 17 January)

Event Time Altitude Azimuth Distance (km) Brightness Sun altitude
Exits shadow 13:01:53 15° 237° (WSW) 2,725 9.4 -19.3°
Maximum altitude 13:05:08 20° 208° (SSW) 2,463 9.4 -18.7°
Drops below altitude 10° 13:10:29 10° 164° (SSE) 3,134 10.5 -17.6°
Sets 13:14:13 0° 148° (SSE) 4,087 11.5 -16.8°
